Theta_e
290 288 286 286 288 289 288 287 286 284 286 285 282 281 282 281 283 282 284 287 285 288 287 286 285 285 288 291 292 293 291 289 289 291 292 292 292 292 293 293 294 293 295 298 297 297 297 297 297 300 304 308 311 313 314 315 316 318 319 319 320 324 326 327 327 328 328 326 326 327 328 327 329 329 330 330 331 331 331 331 330 329 329 327 324 322
291 287 286 286 287 289 286 284 286 285 284 286 283 283 282 284 284 285 288 286 285 289 285 281 284 287 288 290 291 291 289 290 291 291 291 292 292 292 292 293 293 295 295 294 296 295 294 295 296 295 297 302 304 308 311 313 315 317 318 318 319 320 323 326 327 327 327 327 328 328 328 329 329 328 327 328 329 329 329 329 330 329 329 328 325 322
289 287 288 287 285 284 283 284 284 285 284 282 284 282 284 283 282 285 285 285 285 288 284 282 286 289 290 291 292 290 291 292 291 291 293 292 293 293 292 292 293 293 294 293 293 292 292 294 294 294 296 298 303 304 308 311 312 313 315 317 318 319 321 323 325 326 326 327 327 328 327 328 326 327 330 330 330 331 329 330 330 329 329 329 327 324
286 286 286 285 286 287 283 284 286 284 282 282 282 283 283 283 286 285 285 286 286 286 287 285 285 288 288 286 287 289 289 289 288 288 289 290 292 294 294 293 293 293 294 294 293 293 292 291 291 292 294 296 298 300 303 307 309 312 313 316 317 318 319 321 323 323 326 326 326 326 325 323 326 322 320 320 320 324 328 329 330 330 329 329 328 326
285 287 286 285 286 289 285 284 286 285 284 283 284 282 282 284 283 282 285 284 282 284 283 283 285 286 281 283 283 285 283 283 285 284 286 288 290 291 291 291 292 292 293 294 294 294 292 292 294 294 294 295 297 299 301 304 308 310 312 314 316 317 317 320 322 322 323 322 321 317 314 314 313 314 315 317 316 319 320 323 325 328 327 329 329 328
285 287 285 287 286 285 286 284 284 286 282 286 283 284 284 284 284 283 284 283 279 285 282 282 283 278 279 281 282 284 283 287 286 287 290 288 287 286 288 289 290 291 292 293 293 294 293 292 291 291 291 293 296 298 300 302 306 309 310 312 313 315 315 317 319 321 321 321 320 316 317 315 315 316 315 316 319 318 317 320 322 321 323 324 325 325
284 286 285 287 287 285 286 286 284 286 283 284 287 284 283 284 284 283 283 283 280 281 284 280 282 277 280 283 286 283 282 287 288 286 287 287 287 286 287 288 288 289 289 289 289 290 290 291 291 292 292 293 293 296 298 300 303 306 308 310 312 314 314 315 316 319 319 320 320 319 320 320 319 319 319 319 321 323 321 321 320 321 320 321 322 323
285 285 285 286 285 285 284 284 285 286 285 286 284 282 284 285 286 284 283 283 281 281 285 280 279 279 280 285 283 280 283 286 286 287 287 287 287 287 288 288 288 289 288 288 288 288 289 289 290 292 292 293 294 295 296 298 300 304 306 308 310 311 312 312 314 316 319 320 319 318 319 320 320 319 320 318 319 318 316 317 318 318 319 319 320 321
286 285 284 285 284 283 286 284 285 286 286 285 283 284 284 285 283 282 282 280 280 282 282 279 283 281 278 282 282 281 287 285 287 286 286 288 288 289 289 291 292 291 290 289 289 288 288 289 291 292 294 295 295 295 296 299 300 301 303 305 307 309 310 310 312 314 316 319 319 318 319 318 318 320 319 312 311 314 312 314 313 314 316 316 316 317
287 287 286 288 287 286 284 284 283 287 286 284 283 283 282 281 281 281 279 282 279 278 274 280 280 277 279 280 281 280 284 284 285 284 285 287 288 289 289 291 291 291 291 289 287 287 289 290 292 293 293 294 295 294 295 296 297 300 302 304 305 306 307 308 310 312 314 316 316 317 317 317 317 314 310 307 309 310 307 311 311 312 313 314 314 314
288 289 289 287 287 285 285 285 284 285 286 285 284 287 284 281 280 278 278 277 276 273 275 277 277 279 277 281 282 285 285 282 283 284 285 285 287 288 288 288 289 290 290 291 290 289 290 290 290 291 294 294 295 295 295 297 298 299 302 303 305 304 304 305 308 310 312 313 313 315 315 316 316 313 312 308 306 303 301 306 308 308 311 311 312 313
287 287 288 286 285 284 286 286 286 284 284 285 284 281 285 282 279 278 274 275 273 268 270 276 277 277 276 277 283 281 282 282 287 290 289 287 288 289 289 289 289 288 289 289 289 291 291 293 293 293 295 294 295 296 296 296 296 298 299 301 301 298 301 302 305 306 309 310 311 312 313 313 314 314 311 310 311 307 306 306 308 307 305 305 307 307
286 287 285 289 288 287 286 288 285 287 283 284 283 286 280 274 271 276 268 275 272 270 279 277 276 277 278 281 285 284 285 284 282 285 287 286 287 288 289 289 289 288 287 288 289 289 291 291 293 294 294 294 295 295 294 295 295 296 298 299 302 301 298 300 301 304 306 306 308 309 310 311 311 310 310 310 310 309 308 307 306 305 304 304 303 304
284 283 286 289 289 289 289 287 283 284 283 283 286 281 277 272 268 268 262 262 267 272 276 278 277 277 279 281 286 288 290 285 284 284 286 286 287 288 288 288 288 288 287 287 288 289 290 292 293 291 291 292 292 293 293 294 295 295 297 298 301 301 297 298 299 302 303 304 306 307 308 309 308 308 308 309 309 308 308 308 307 306 307 305 305 306
277 279 285 288 286 289 288 287 289 286 285 285 282 285 282 272 268 267 265 272 272 272 273 274 274 273 277 286 285 285 286 285 284 283 283 284 284 285 286 286 286 286 287 286 288 290 291 291 291 292 292 291 291 292 293 294 294 295 296 297 298 299 297 296 299 299 301 303 303 304 305 306 306 307 307 307 308 308 306 305 306 306 306 306 306 306
282 279 284 286 286 287 289 288 286 286 285 282 280 282 280 278 276 270 266 265 264 269 270 273 276 277 282 284 285 285 284 285 284 284 283 286 286 285 285 287 287 286 287 287 288 290 291 291 291 291 291 291 290 291 291 292 293 294 296 295 296 299 297 297 297 299 300 301 301 301 302 303 304 304 304 304 303 304 305 305 305 305 305 305 306 305
279 281 284 284 285 287 288 286 288 288 285 284 283 278 281 280 279 270 267 269 269 268 272 268 277 281 280 284 288 281 283 286 285 284 284 285 285 284 286 286 286 286 286 287 288 289 290 290 290 290 291 292 291 291 292 293 293 295 295 295 296 295 294 295 297 298 298 299 299 300 301 301 301 302 303 304 304 303 303 304 303 304 304 303 302 303
282 280 283 285 287 288 286 286 286 284 286 284 279 282 282 281 281 278 273 265 262 268 271 271 275 278 275 280 282 281 285 285 283 284 282 282 283 288 288 286 285 287 286 285 286 287 287 289 291 291 290 289 291 293 293 292 291 293 294 295 296 295 296 296 296 297 297 298 298 299 299 300 301 302 302 303 303 303 302 301 301 300 301 301 301 301
285 279 283 283 285 287 285 288 288 287 285 283 281 285 284 278 277 277 273 268 267 265 265 269 272 272 277 280 280 284 283 286 287 285 285 289 289 289 286 285 285 284 287 291 293 293 294 294 294 293 293 292 291 290 290 291 291 292 293 293 295 296 296 296 296 296 296 297 298 299 299 299 299 300 301 301 301 301 300 300 300 300 301 301 299 299
284 279 280 285 285 286 286 286 284 284 285 284 285 284 284 279 275 274 276 271 273 267 263 268 267 277 278 279 279 284 281 280 281 284 285 285 286 285 285 286 288 290 292 293 294 294 294 294 293 292 292 294 293 293 291 291 290 291 292 292 293 293 294 294 295 295 296 296 296 297 297 297 298 299 299 300 300 300 300 300 300 300 299 300 300 299
284 282 275 283 285 285 284 284 284 285 282 281 281 281 284 279 282 280 277 275 275 265 263 265 269 272 277 279 281 285 282 279 280 286 286 286 285 284 283 288 291 291 293 293 293 293 293 292 291 291 289 289 289 290 291 292 292 294 294 294 294 294 294 294 294 294 295 295 295 295 296 297 297 297 297 297 298 298 299 299 299 299 300 298 298 297
283 282 279 281 282 283 282 284 283 285 287 286 285 283 286 280 278 276 276 275 267 272 267 263 273 273 280 280 285 285 284 283 283 283 284 283 284 285 289 287 286 292 292 291 292 290 291 290 290 290 291 291 292 293 291 292 293 294 294 293 292 293 294 294 295 295 295 294 294 294 295 295 295 295 295 295 296 296 297 297 297 297 295 297 298 296
285 281 283 277 282 285 286 285 283 284 285 285 284 284 286 283 280 274 273 273 269 271 269 265 268 276 282 281 282 282 281 281 281 282 283 286 288 288 289 289 288 287 291 291 290 288 288 288 288 288 289 290 290 290 290 291 292 292 291 291 291 291 293 292 293 293 293 294 294 294 293 292 292 292 292 293 294 293 294 294 294 294 295 296 295 294
289 281 278 278 279 281 284 284 284 284 286 286 285 281 283 283 282 279 272 274 278 271 272 268 267 277 281 281 281 280 280 280 281 280 281 286 288 286 287 292 293 292 290 288 286 287 287 287 287 290 291 292 291 290 290 290 290 291 291 290 290 291 292 291 291 291 291 291 292 292 291 291 291 291 291 291 292 292 292 292 292 292 292 293 294 294
284 282 283 273 273 276 279 283 282 283 285 281 281 282 283 280 279 277 276 274 273 275 275 275 272 276 281 282 281 284 282 284 285 284 280 285 290 290 290 289 288 287 287 289 289 288 288 287 289 290 289 290 289 289 289 289 289 289 290 289 290 290 290 290 290 290 290 290 290 290 290 290 290 290 290 291 291 291 291 291 291 291 291 292 292 293
285 281 282 277 275 274 271 271 277 281 283 281 279 281 282 284 280 281 278 274 274 272 276 272 277 280 284 281 284 284 284 286 286 284 283 282 288 290 290 289 287 286 286 286 286 287 289 288 288 288 288 288 288 288 288 288 288 288 288 289 288 289 290 290 289 289 289 289 290 290 290 290 289 290 290 290 290 290 290 291 290 290 290 291 292 292
281 281 284 284 282 280 282 281 283 285 282 282 281 283 283 284 283 283 279 274 279 276 275 278 282 282 283 285 285 286 285 286 288 288 289 288 287 286 285 285 285 286 286 287 287 286 286 288 290 288 288 287 288 288 288 288 289 289 289 289 289 289 289 289 288 288 289 289 289 289 289 289 289 289 289 290 290 290 290 289 289 289 290 290 290 291
281 282 284 283 283 284 281 281 282 287 284 284 282 282 283 283 283 283 282 281 283 276 274 281 283 281 283 281 284 284 285 283 284 286 288 288 289 289 288 285 287 286 286 286 287 288 289 288 288 288 288 288 288 287 287 288 288 289 289 289 288 288 288 288 288 288 288 288 288 288 289 289 288 289 289 289 289 289 289 289 289 289 289 289 289 290
283 282 284 283 283 282 280 281 282 285 285 285 285 284 282 283 282 282 283 286 283 281 281 284 282 282 285 285 287 286 287 289 289 290 289 289 286 285 285 286 287 288 287 287 289 287 287 288 287 287 287 287 287 287 288 288 288 288 288 288 288 288 288 288 287 288 288 287 288 288 288 288 288 288 288 288 288 288 288 288 288 288 288 288 289 289
286 279 281 282 283 282 281 281 282 284 282 282 284 284 285 284 283 285 285 286 285 284 285 285 282 284 288 286 288 289 288 288 286 286 286 286 287 286 285 286 287 286 287 287 288 288 287 287 286 287 287 287 287 287 287 288 288 287 287 288 288 287 287 287 287 287 288 288 288 288 288 288 287 288 287 288 288 288 288 288 288 288 287 288 288 288
286 280 284 280 278 278 280 280 280 282 282 282 281 283 284 285 285 285 286 286 285 284 285 284 282 283 288 285 286 289 286 286 287 286 288 288 287 288 288 287 287 288 288 288 287 287 286 286 286 287 287 287 287 287 287 287 286 286 287 287 287 287 286 286 287 287 287 288 288 287 287 288 288 287 288 288 287 288 287 287 287 287 287 287 287 287
285 278 279 276 277 275 278 280 279 278 279 280 280 281 282 282 281 283 283 285 283 283 285 284 283 284 288 287 290 288 286 288 289 290 289 289 289 288 288 288 288 289 289 288 286 285 285 286 287 287 287 287 286 286 286 286 286 286 287 286 286 286 286 286 286 287 287 287 287 287 287 287 287 287 287 287 287 287 286 286 285 286 286 286 286 287
281 282 280 276 275 274 275 276 278 278 278 276 279 283 283 284 285 284 285 284 286 288 284 281 284 290 288 286 288 286 286 288 288 289 290 290 290 288 289 290 290 289 288 287 287 287 287 287 287 287 286 286 286 286 286 285 285 286 286 285 286 285 285 286 286 287 287 287 287 287 287 287 287 287 287 287 286 286 285 285 285 285 286 286 287 285
280 283 278 278 277 272 275 276 277 277 273 277 287 288 286 284 284 283 284 286 287 287 286 289 290 291 287 284 288 288 286 288 290 292 293 294 293 289 288 288 288 287 286 285 286 287 287 286 286 286 286 286 286 285 285 284 285 285 285 284 284 285 285 285 286 286 286 286 287 286 286 286 286 286 286 286 285 285 285 285 286 286 286 286 285 285
281 279 279 275 277 275 276 277 277 274 277 286 283 286 289 288 287 286 288 288 288 288 288 288 288 290 290 289 289 289 290 290 289 290 290 288 288 289 289 287 287 286 286 287 286 286 286 286 286 286 286 286 285 284 284 285 285 284 284 284 285 284 284 285 285 286 286 286 286 286 286 286 286 285 286 286 285 285 285 285 285 285 286 286 286 286
283 283 280 278 279 281 277 278 274 276 282 283 283 284 284 286 286 285 284 286 286 287 288 288 290 292 292 291 288 288 289 288 287 287 287 286 286 289 288 289 286 286 287 287 287 287 286 286 287 287 287 285 284 284 284 285 284 283 284 284 284 284 284 284 285 285 285 285 285 285 285 285 285 285 285 285 284 284 285 285 285 285 286 285 286 286
286 284 283 280 282 278 277 278 279 282 283 284 285 284 285 284 284 284 282 286 289 289 288 289 290 291 291 291 292 288 286 288 288 291 286 285 286 285 288 287 287 286 287 286 286 287 286 286 285 286 285 284 284 284 285 284 283 283 284 284 284 284 284 285 285 285 285 285 285 285 285 284 284 284 284 284 284 284 285 285 285 285 284 284 286 286
290 287 285 284 281 284 279 277 279 279 277 283 286 285 287 287 290 289 287 286 289 290 290 290 289 291 290 290 290 286 287 288 286 289 289 286 284 285 285 285 285 286 286 285 285 285 284 284 284 284 284 284 284 284 283 282 282 283 284 284 283 284 284 284 284 284 284 284 284 284 284 284 283 283 282 282 282 283 283 284 284 284 284 284 285 285
290 290 287 287 284 284 282 280 280 278 282 286 286 286 288 287 290 288 286 283 289 287 290 290 290 290 290 290 287 287 287 285 287 289 287 285 285 285 286 285 285 285 285 285 285 285 284 284 283 283 283 284 284 284 282 282 282 283 283 283 283 283 283 283 283 283 283 284 284 284 283 283 282 282 281 281 282 282 282 283 283 284 282 283 283 283
286 286 286 284 283 284 283 281 279 283 282 285 284 283 284 287 291 289 278 280 288 288 289 289 290 291 291 289 287 287 287 284 287 290 286 286 285 284 285 285 285 284 284 283 283 283 283 283 283 283 283 283 283 282 282 281 282 281 282 282 282 282 282 282 282 283 283 283 283 283 282 282 281 281 280 281 281 281 281 282 281 282 282 282 282 283
284 284 285 282 283 283 284 282 283 283 285 283 285 283 283 288 290 283 279 286 288 289 287 290 290 291 289 286 287 286 288 290 288 285 285 284 284 284 283 283 284 284 284 283 283 283 283 283 283 283 282 282 282 282 281 281 282 282 281 281 282 281 282 282 282 283 283 282 282 281 281 281 279 280 280 279 280 280 280 280 281 281 280 281 281 280
284 285 284 285 282 281 283 281 282 284 286 285 282 285 287 289 282 281 288 285 289 286 284 286 289 287 287 288 288 290 285 282 283 284 285 285 285 283 283 283 283 283 282 282 281 281 282 282 281 281 282 281 281 281 280 280 281 281 281 280 280 281 281 282 282 282 281 281 281 280 280 280 280 279 280 279 279 278 279 279 278 279 279 279 279 278
284 283 281 282 284 284 283 281 280 277 286 288 286 286 286 284 286 289 284 284 282 282 284 285 287 286 286 285 285 284 282 283 284 285 284 283 283 283 283 283 283 282 282 281 281 281 281 281 281 281 281 281 280 281 280 279 279 280 279 280 281 281 282 282 281 281 281 280 280 280 280 279 279 279 279 279 278 277 278 279 277 278 276 276 277 277
289 283 283 285 287 280 281 279 280 286 287 289 291 287 286 290 284 284 288 287 283 281 282 284 282 283 284 286 283 283 284 283 283 283 283 283 282 282 281 281 281 281 281 281 280 280 278 280 280 280 281 281 281 280 281 281 279 280 279 280 281 281 280 280 279 279 278 278 278 278 279 279 278 278 278 278 278 278 278 279 279 279 278 277 278 279
288 284 286 283 287 285 283 286 288 286 286 289 289 287 289 291 282 283 287 287 286 285 280 283 285 282 283 285 284 284 284 283 284 284 284 283 282 282 281 281 281 280 280 279 279 277 277 279 278 278 278 280 280 280 279 279 277 277 277 279 280 279 279 278 277 276 276 276 277 277 277 277 278 278 278 277 277 278 279 279 278 279 279 275 277 278
282 285 284 285 285 286 285 285 285 284 283 285 285 285 285 285 284 283 284 287 284 283 284 285 283 282 282 285 285 282 284 284 283 283 282 282 282 281 280 279 279 278 278 277 277 277 277 277 277 278 277 277 277 276 277 277 277 276 277 278 278 278 277 276 275 275 274 274 275 275 275 275 276 277 277 277 277 277 278 278 278 278 279 279 278 278
283 281 284 282 282 285 281 285 286 286 282 283 285 283 282 282 283 282 282 284 283 282 282 283 283 283 284 285 286 285 284 283 283 282 282 281 281 280 279 279 278 277 276 276 276 275 276 276 275 275 274 275 275 275 274 274 275 276 276 276 276 275 275 273 273 273 273 272 273 273 274 274 275 276 276 276 277 277 278 278 277 277 278 279 278 278
282 280 283 280 279 283 282 282 282 281 280 282 281 285 286 286 283 281 280 281 280 281 280 280 282 282 283 284 285 285 283 282 283 281 281 280 279 279 278 278 277 276 276 276 275 274 274 273 272 272 272 272 273 272 272 272 273 275 275 276 275 274 273 272 272 271 271 271 272 272 273 273 274 274 274 275 276 276 277 278 277 277 278 279 279 279
282 285 280 281 285 281 281 282 282 281 283 284 282 282 284 283 281 280 280 280 280 281 280 279 278 280 282 283 283 284 282 281 282 281 280 279 278 276 275 274 274 273 273 272 271 271 270 270 269 270 270 270 271 271 271 272 273 275 275 276 274 272 271 271 271 270 270 270 271 271 272 273 273 273 273 274 275 275 276 276 277 278 278 279 280 279
282 282 279 281 278 278 284 287 284 280 280 285 284 286 285 282 281 280 280 280 280 281 281 280 277 276 277 279 281 283 281 278 277 278 277 276 274 273 272 271 271 271 270 270 268 267 266 267 267 267 268 269 270 270 270 272 274 275 275 274 272 271 269 269 268 268 268 269 270 270 270 271 271 272 273 273 273 274 275 277 279 280 279 279 281 282
283 282 280 279 280 281 284 284 284 288 287 287 285 282 283 281 282 282 281 281 281 281 281 280 278 276 275 273 273 278 278 277 275 276 274 272 271 271 270 269 269 269 268 268 266 265 265 265 267 267 267 268 269 269 271 272 274 273 273 271 270 269 268 267 267 267 267 268 268 269 269 270 270 271 272 272 273 274 274 275 277 279 281 282 281 282
Wind_Speed
1 6 7 9 9 10 6 5 5 3 7 6 5 5 4 4 1 2 2 1 1 2 3 4 5 6 11 12 12 12 1 4 7 10 9 9 8 8 8 8 9 9 14 2 4 5 6 7 8 8 8 9 10 10 11 11 12 13 13 11 14 11 10 10 10 10 9 8 5 6 10 12 11 10 9 9 9 8 7 7 10 11 10 9 10 11
3 6 8 5 6 7 7 8 10 9 5 7 6 5 1 1 2 1 1 2 3 1 1 1 2 9 12 11 12 7 1 9 11 10 10 11 10 8 8 10 10 12 3 3 5 5 4 6 6 6 7 7 10 12 11 14 15 13 11 12 12 8 10 11 11 9 10 11 10 8 9 8 7 6 7 8 7 7 6 6 6 7 9 10 11 11
3 8 6 6 4 9 6 4 4 7 6 4 6 4 3 3 2 1 0 1 3 1 4 1 2 9 11 11 11 8 9 8 6 7 7 6 9 8 7 9 10 7 11 4 7 5 7 6 5 5 6 8 11 8 12 13 10 10 11 12 11 9 10 11 11 10 11 10 10 10 7 6 5 6 7 6 6 6 6 6 6 5 7 10 10 11
3 4 6 4 7 10 4 4 10 8 7 7 6 4 5 3 4 2 2 0 3 2 2 1 4 10 7 6 11 11 6 7 6 7 10 7 10 12 10 5 6 9 10 10 6 7 6 6 7 5 6 8 7 8 8 9 12 10 10 11 10 10 10 9 10 10 9 8 6 7 5 4 6 4 3 4 2 4 9 11 8 7 7 6 8 9
6 1 1 8 4 10 7 2 8 6 3 2 3 4 5 3 2 2 3 1 1 1 2 0 2 8 4 5 5 1 4 4 5 6 7 8 8 10 10 10 9 13 11 11 9 8 6 6 7 7 6 4 7 8 9 8 8 8 10 9 9 8 8 8 8 9 7 6 5 5 3 3 2 2 3 3 4 5 6 6 8 10 8 8 7 10
1 1 3 6 4 4 7 3 4 9 3 1 4 5 5 5 8 0 1 4 3 1 5 3 3 3 4 7 9 8 8 8 3 5 9 5 6 5 8 10 7 8 8 9 11 9 4 6 7 7 6 6 6 7 6 6 7 8 7 7 8 7 7 8 9 9 8 8 8 6 7 7 6 7 6 8 11 9 8 9 5 4 8 9 8 7
2 0 2 7 7 5 6 6 5 4 6 4 3 3 3 8 8 7 5 3 1 2 2 2 2 5 6 4 5 4 8 11 7 4 8 8 7 5 7 7 8 8 9 6 7 7 7 7 6 8 7 6 6 7 5 5 6 7 7 7 8 8 7 7 8 9 9 8 8 11 11 10 10 10 8 7 7 8 7 5 6 7 6 6 6 6
2 1 5 4 5 5 5 4 4 7 9 4 1 5 8 9 8 6 6 2 1 1 1 5 3 1 6 8 5 6 6 9 10 7 7 5 6 6 6 6 7 7 7 7 8 8 7 7 6 8 6 4 5 5 4 5 5 7 7 7 8 6 7 7 8 10 10 10 9 10 10 9 9 10 10 8 8 4 3 7 7 6 6 6 6 6
4 5 4 5 2 4 7 3 2 4 6 1 1 4 5 6 5 6 6 5 0 1 4 3 3 0 5 8 4 3 2 6 8 7 6 6 6 6 6 5 5 6 6 6 6 6 6 6 5 5 6 6 5 3 4 5 5 5 5 6 6 7 7 7 9 10 10 10 10 9 8 8 8 8 8 3 4 6 5 7 5 6 7 6 6 6
2 4 5 6 8 7 2 0 1 4 4 1 6 8 8 8 7 5 4 5 1 2 4 2 3 2 8 7 5 4 1 8 8 5 6 5 5 6 6 6 6 5 5 4 5 6 5 5 5 5 5 5 4 3 1 2 4 5 5 6 7 7 7 7 9 9 9 9 8 8 8 10 9 6 4 3 5 6 5 7 7 6 6 6 6 6
1 3 4 3 3 2 6 2 1 2 4 10 4 9 7 9 5 4 7 3 3 1 5 3 5 1 4 5 6 3 4 4 2 4 4 6 4 4 4 4 5 6 6 6 6 3 4 4 3 4 3 3 4 4 4 4 4 4 5 6 7 6 5 6 8 8 9 8 8 9 10 11 10 8 7 6 5 5 4 6 7 7 8 6 6 5
1 1 1 0 2 4 3 6 5 4 6 5 4 5 7 5 6 4 5 5 1 4 3 2 2 1 6 5 4 8 4 4 2 1 2 3 5 5 5 6 6 6 6 7 6 6 6 4 3 4 6 5 4 5 6 4 4 4 5 6 6 4 5 5 6 7 8 8 8 7 8 10 10 9 9 10 10 9 10 8 8 7 4 5 5 4
3 3 1 3 3 5 4 11 4 1 3 5 7 7 7 1 4 2 3 2 4 4 1 3 1 2 8 10 4 5 9 6 7 7 5 4 7 7 6 8 8 6 6 6 5 5 4 4 4 6 6 6 6 5 3 3 2 3 4 6 7 5 4 5 5 7 7 7 8 9 9 9 8 8 9 10 9 9 9 8 7 7 7 6 5 7
2 1 2 1 2 3 3 12 2 1 1 4 9 8 6 2 2 2 2 1 5 5 4 1 1 3 4 9 12 16 12 4 7 9 8 6 7 8 7 10 10 8 6 6 4 2 1 1 2 2 3 3 2 2 1 1 3 3 4 4 6 5 4 4 4 5 6 8 8 8 8 8 7 8 9 8 9 8 8 7 8 8 8 7 9 8
4 3 5 5 2 2 1 3 9 7 9 5 1 7 8 8 6 4 3 4 4 4 3 3 1 6 3 1 0 7 7 4 5 5 5 7 8 8 7 10 9 7 6 4 4 2 1 1 2 3 3 2 1 1 1 1 3 3 4 4 4 2 3 3 4 3 5 5 6 6 6 6 6 7 7 7 7 7 7 7 8 8 7 7 8 8
5 3 2 3 2 0 7 1 3 6 6 0 2 4 6 6 6 3 3 3 1 0 1 1 5 4 4 2 8 5 6 7 4 6 3 8 4 2 4 6 6 6 6 4 4 4 2 2 2 2 2 2 2 2 2 2 2 3 4 4 4 4 4 4 4 4 5 5 4 5 6 7 7 6 6 6 6 6 7 8 8 8 7 7 7 6
3 4 2 7 3 2 0 0 1 1 7 4 4 3 3 2 11 7 2 1 1 4 5 1 8 7 9 8 9 3 3 7 2 3 3 6 3 2 3 4 5 5 6 6 5 4 3 2 1 1 2 2 2 1 1 2 4 4 4 4 4 4 3 4 5 5 5 5 5 7 6 6 7 7 9 8 9 9 7 7 6 6 7 6 5 7
10 3 3 3 1 1 0 1 2 5 1 9 2 7 2 2 6 5 3 2 4 3 7 2 8 6 3 6 5 5 4 7 2 5 4 5 2 1 1 5 5 5 5 5 4 4 3 1 2 2 1 1 1 1 1 2 3 4 3 4 4 3 4 5 5 6 6 7 7 7 7 7 7 8 8 7 8 7 6 6 5 5 5 8 7 7
7 4 0 1 0 4 1 0 5 2 3 3 3 5 5 2 1 2 5 1 1 2 5 4 3 6 6 7 5 1 4 8 8 5 2 2 1 3 3 4 3 3 3 3 3 3 4 5 4 3 1 0 1 2 3 3 3 3 3 3 3 4 5 5 4 5 5 5 6 6 7 7 6 7 7 6 6 5 6 7 7 8 8 6 6 6
1 5 1 1 2 1 2 2 9 2 4 3 3 4 0 3 2 4 6 3 5 4 2 7 3 6 7 7 8 6 5 6 4 2 6 7 5 4 1 1 1 1 1 2 3 4 4 3 1 1 1 1 0 0 1 1 1 2 3 3 3 3 4 4 5 5 6 6 5 6 5 6 5 5 6 7 6 6 7 8 7 8 7 9 7 7
3 1 5 1 2 1 3 4 9 10 10 3 2 2 1 2 2 5 2 3 4 5 5 2 6 4 7 7 6 9 6 4 4 2 1 4 6 4 3 2 1 1 2 2 3 3 3 3 4 3 2 3 2 0 1 2 0 1 2 2 1 1 1 3 4 5 5 5 5 6 6 6 5 6 6 7 7 7 8 7 7 7 8 5 7 7
4 1 7 2 2 5 5 1 1 5 4 8 11 11 11 9 5 4 6 3 2 3 4 4 9 5 10 4 9 9 5 3 4 3 3 4 2 1 1 2 3 3 1 0 1 2 3 5 6 5 4 4 7 8 9 8 6 7 7 6 4 3 2 4 3 3 4 4 4 5 5 5 4 5 5 7 7 8 7 7 7 7 5 8 7 7
4 4 9 4 6 4 1 1 1 1 0 2 2 6 6 2 6 5 6 4 3 0 5 2 0 9 7 3 5 3 3 4 4 2 2 1 0 1 2 2 2 2 1 1 1 2 4 4 4 3 4 6 6 6 6 7 8 7 8 8 7 7 8 6 6 5 5 5 5 5 4 4 5 5 6 7 7 6 7 7 6 6 7 7 6 7
5 5 5 1 2 2 2 1 2 0 0 1 2 2 4 7 5 6 2 7 8 3 2 1 1 9 5 1 3 4 5 6 5 4 2 0 1 2 3 1 1 1 1 3 3 2 4 5 4 3 6 7 8 7 8 7 6 7 7 7 7 8 9 8 7 7 6 6 6 6 6 6 5 5 6 7 7 7 7 7 7 7 7 7 6 7
5 4 9 3 2 3 3 2 2 2 1 3 3 3 2 4 5 2 5 1 2 9 9 9 7 6 3 3 2 0 2 2 2 3 6 2 2 3 4 4 2 1 5 2 2 4 6 5 4 4 4 5 5 6 6 7 7 7 8 7 8 7 7 7 7 7 7 6 6 6 5 6 5 6 7 7 7 8 7 7 7 7 8 7 7 7
3 4 8 8 10 9 6 5 10 12 11 3 1 3 5 10 8 5 4 1 4 3 8 5 8 4 3 4 2 2 2 2 1 3 3 4 3 4 4 4 3 2 2 4 4 1 1 2 3 2 3 2 2 3 3 4 5 5 5 6 5 6 7 7 6 6 5 5 5 6 6 6 6 6 7 7 7 8 8 7 7 8 8 6 7 6
3 1 5 9 13 14 14 5 2 10 6 6 5 9 6 5 6 5 5 5 11 4 7 8 10 4 1 3 2 4 1 4 4 4 6 5 6 6 4 5 4 3 3 4 7 4 1 1 1 2 2 2 3 3 4 4 5 5 5 5 6 6 6 6 6 6 5 5 4 5 6 6 6 6 7 7 7 7 6 7 7 8 8 6 6 6
3 3 7 7 7 6 2 3 5 8 10 7 9 9 8 9 9 9 10 13 6 10 8 10 8 7 10 4 6 6 6 5 5 5 4 5 6 7 5 4 5 4 2 4 3 1 1 1 1 1 1 2 2 3 3 2 2 3 3 3 4 4 4 5 5 4 4 3 4 4 6 5 6 6 6 6 6 6 7 7 7 7 6 5 6 7
5 7 4 5 8 3 2 4 6 6 8 10 13 12 12 13 10 13 15 17 8 10 16 9 8 10 12 10 10 10 9 9 11 10 5 3 2 3 3 4 5 5 4 3 1 0 0 1 1 2 2 2 1 1 1 0 1 1 1 1 3 4 5 6 5 5 4 4 4 5 5 5 5 5 5 5 5 6 7 6 6 5 5 5 6 6
4 4 3 4 7 3 2 3 2 7 2 3 9 12 15 15 17 19 18 17 13 12 13 8 10 16 15 7 13 10 8 8 3 1 0 2 5 4 4 7 8 7 5 3 2 1 0 0 1 1 2 1 1 1 2 2 4 5 5 5 5 4 4 4 4 3 4 3 4 4 4 4 4 4 4 4 5 5 5 5 5 5 5 5 5 6
4 3 6 2 3 4 3 1 2 3 4 5 4 8 10 14 17 20 18 15 10 9 9 8 5 12 10 7 7 8 5 3 0 3 5 8 6 7 9 8 5 6 6 1 1 0 0 0 1 2 3 4 6 7 5 5 5 6 5 5 6 6 6 4 5 5 5 6 5 5 5 5 6 6 6 6 6 6 6 6 5 5 5 5 6 6
2 2 2 2 4 3 1 4 2 4 2 1 2 6 11 13 12 11 11 7 6 11 13 10 11 16 9 12 10 7 4 6 9 10 9 8 10 10 9 9 7 7 6 2 3 3 2 2 2 2 3 5 5 5 5 5 5 5 6 6 6 6 6 5 5 6 6 6 6 6 7 7 7 7 7 6 7 7 5 5 4 4 4 5 6 5
4 6 5 3 4 3 3 1 6 5 2 3 9 14 19 14 10 4 5 5 11 14 11 9 16 17 6 8 7 4 7 11 10 9 10 10 9 9 11 12 10 7 4 3 5 7 7 4 3 4 4 3 3 3 3 3 4 5 5 6 5 5 5 6 6 6 7 7 7 8 8 8 8 8 8 8 8 6 6 5 5 4 4 5 5 4
3 7 4 2 5 1 3 3 3 6 7 12 10 10 12 15 15 10 9 15 16 10 10 14 15 10 3 6 9 9 12 10 13 13 11 11 11 10 9 7 7 5 5 4 3 3 3 3 4 2 1 0 1 2 3 3 3 4 4 4 4 5 5 6 6 7 7 6 7 8 7 8 7 8 8 7 6 7 6 6 6 5 5 5 5 4
6 4 5 2 3 2 0 1 5 8 13 6 2 3 14 13 10 18 19 15 11 10 10 11 12 14 12 8 9 8 8 7 7 9 10 6 2 5 7 7 6 5 4 4 4 3 2 3 3 3 3 3 2 3 4 4 3 5 4 4 5 4 5 5 5 6 7 7 7 7 8 8 8 8 7 7 6 6 6 6 6 6 5 4 5 5
7 7 3 2 4 5 3 4 4 8 4 2 2 1 2 4 8 7 9 10 7 10 14 17 21 20 15 8 5 6 7 7 4 6 9 4 5 6 6 6 5 6 7 6 7 4 4 3 3 2 1 1 2 3 2 3 4 4 4 3 3 4 4 4 4 6 6 7 7 7 7 7 8 7 7 7 6 6 7 6 5 7 6 5 5 4
8 5 4 3 3 6 5 8 8 5 8 2 3 2 6 8 8 11 10 13 15 14 13 15 18 17 12 10 10 6 3 0 4 10 3 5 6 5 5 4 6 6 6 5 5 4 2 2 2 0 0 1 1 2 3 2 2 2 1 2 3 3 3 4 7 8 7 7 7 7 7 7 8 7 7 7 7 7 8 8 8 7 4 6 6 6
5 8 4 6 3 5 5 2 0 4 10 12 6 1 2 4 8 9 8 9 4 10 14 15 16 16 13 12 10 4 5 2 8 12 6 6 2 5 4 5 4 5 5 5 3 4 4 2 2 2 2 2 2 2 2 2 2 1 3 5 5 6 8 9 10 8 8 9 9 9 8 8 8 8 8 7 7 8 7 6 5 5 5 6 8 8
2 3 4 8 3 6 7 8 8 9 10 3 1 3 3 4 9 6 4 11 4 5 9 13 12 12 14 14 4 9 4 5 11 10 3 4 4 4 9 5 6 5 5 5 5 6 4 4 3 3 3 3 6 5 4 4 3 5 7 6 6 7 9 9 9 9 10 10 9 8 8 7 6 7 7 7 7 7 8 7 7 7 5 5 5 7
6 5 5 7 7 5 6 8 9 4 4 2 2 1 2 5 7 6 2 8 3 6 11 12 14 15 14 7 6 7 8 7 11 9 5 7 6 4 5 8 7 7 7 5 5 3 3 3 5 5 6 6 5 4 5 4 4 4 6 5 3 7 8 8 7 7 7 7 8 7 6 5 6 6 6 8 8 7 7 6 6 6 6 6 5 6
6 3 8 12 9 9 10 4 1 5 4 3 4 2 3 3 6 7 13 5 5 9 5 9 11 12 5 5 8 6 11 8 3 3 8 8 9 7 6 4 6 6 7 6 4 4 5 4 5 6 5 4 4 4 4 4 4 6 5 4 6 8 8 7 6 7 7 7 7 6 6 5 5 7 7 5 7 6 6 6 7 7 6 7 6 5
7 5 1 4 7 8 7 7 6 4 6 7 2 6 6 6 6 12 6 2 8 6 3 4 8 4 4 9 8 8 3 2 5 6 9 7 9 7 7 7 6 6 5 5 5 5 5 5 5 4 5 4 6 5 6 5 7 6 7 6 8 7 7 6 7 7 8 7 7 6 6 6 6 5 7 6 6 7 7 5 6 6 6 5 5 8
9 7 7 9 5 3 3 6 4 9 3 9 10 1 2 5 8 5 2 1 2 3 5 5 7 5 6 4 2 4 6 4 7 8 7 7 9 8 7 7 7 6 6 5 7 5 4 5 5 5 5 5 5 6 5 6 6 6 5 7 7 7 7 7 7 8 7 7 7 7 8 7 7 8 6 7 6 6 8 6 5 6 5 6 6 6
7 7 5 7 8 6 10 9 8 5 3 10 14 9 7 12 3 6 7 4 4 3 4 5 4 5 5 7 8 5 6 9 5 7 8 6 7 7 6 6 6 5 5 5 5 4 3 4 4 4 3 4 5 5 6 7 7 6 7 7 9 8 7 8 7 7 7 7 7 9 8 8 8 7 6 6 7 6 7 8 7 6 5 5 5 6
7 8 6 8 6 7 7 8 6 3 5 9 4 1 8 10 2 3 2 3 5 7 4 3 5 4 5 9 8 10 7 5 9 7 10 8 8 7 8 6 6 5 5 5 6 4 4 5 4 4 4 6 6 6 7 7 7 6 7 7 8 8 8 8 8 7 6 6 7 7 8 8 6 6 5 5 6 8 8 9 7 9 7 4 5 6
2 3 1 4 3 1 2 2 1 1 2 5 3 1 0 1 0 2 3 1 4 4 8 6 5 7 6 8 12 3 8 10 10 8 7 7 8 6 6 6 6 5 4 5 6 6 4 4 4 5 5 5 6 6 7 8 8 8 8 8 8 7 7 7 7 7 8 8 9 9 10 12 11 8 7 8 6 6 6 7 8 8 9 7 6 6
3 2 1 3 1 7 7 5 6 7 2 1 4 1 1 1 3 3 3 3 2 4 4 1 6 9 10 9 11 12 10 9 10 8 7 7 7 6 6 7 6 6 6 7 7 5 6 7 7 8 9 7 8 8 8 8 7 6 6 7 7 7 9 9 10 11 10 11 11 10 10 11 9 11 11 8 8 7 6 6 6 7 9 8 7 7
4 2 3 3 3 8 7 5 4 3 3 3 3 3 5 7 5 3 2 1 2 2 2 3 5 6 6 8 9 13 10 8 11 9 7 6 7 6 6 6 5 5 6 7 7 6 6 7 7 7 8 7 8 8 7 7 7 7 6 5 7 8 9 9 10 10 11 11 9 9 9 9 12 12 10 10 8 9 10 8 5 7 9 9 7 7
2 6 5 5 7 4 4 4 4 2 4 5 4 5 5 3 3 1 1 3 4 5 5 4 3 2 4 6 7 11 12 7 7 9 9 7 6 5 5 5 5 5 5 5 5 6 6 5 6 6 6 6 7 7 7 7 7 6 6 7 7 9 9 9 11 10 11 10 9 9 9 9 9 9 10 11 10 8 7 8 10 9 11 11 6 7
3 8 2 4 4 5 11 11 5 2 5 6 6 10 9 4 5 4 3 3 5 7 7 8 5 5 4 3 5 10 14 9 6 7 8 6 6 5 5 4 4 5 5 5 5 6 7 7 5 5 5 5 6 6 7 6 6 5 8 7 8 9 9 10 11 10 9 9 9 9 9 9 9 9 9 10 10 12 14 10 11 11 11 13 12 12
8 6 6 7 8 9 7 5 4 7 5 6 4 2 5 7 7 8 8 8 6 5 7 11 10 5 5 5 4 4 8 10 8 7 8 6 5 5 5 5 5 5 6 5 6 6 5 3 3 3 5 5 6 6 7 6 6 7 6 7 7 8 8 9 9 9 8 9 9 10 11 10 10 10 9 9 9 10 11 14 15 12 16 19 21 21
Wind_Direction
113 135 171 185 188 188 182 157 161 165 135 111 74 94 156 152 256 273 286 287 305 101 245 226 266 272 273 269 274 281 299 272 278 272 265 265 265 256 251 241 242 242 243 258 233 242 235 228 221 220 210 216 213 214 208 208 212 210 209 200 214 208 201 200 201 204 210 207 197 200 202 214 218 221 216 209 205 205 215 207 196 191 194 195 203 203
68 145 220 208 197 178 149 127 107 73 61 134 135 137 176 185 124 212 136 349 322 151 289 62 316 271 261 272 267 276 339 269 247 252 260 259 252 250 245 255 247 246 316 303 294 276 268 248 234 217 212 199 202 219 206 211 213 210 207 208 215 192 200 205 202 200 201 209 212 204 208 206 196 188 195 203 197 193 188 199 192 192 194 196 196 196
158 195 223 210 128 93 89 88 67 117 112 55 141 156 115 250 235 308 340 343 337 98 263 36 322 271 266 258 266 253 241 244 235 219 238 239 265 261 244 245 263 288 276 270 259 273 266 264 259 226 223 217 217 213 206 218 212 208 208 214 208 197 196 204 201 197 205 203 209 214 222 213 225 228 227 233 218 193 193 200 205 201 203 202 200 195
179 283 243 154 149 110 54 79 98 77 67 112 100 112 194 228 132 224 273 343 3 86 315 250 297 280 284 279 260 266 242 263 267 261 261 243 255 257 259 264 273 273 276 277 263 263 263 274 274 269 235 227 227 229 217 211 210 208 211 211 203 200 198 197 199 204 206 201 203 211 216 204 205 200 196 213 259 226 215 220 205 206 204 198 195 188
185 253 31 142 163 133 124 120 117 110 119 347 130 133 133 158 224 144 183 119 342 28 58 59 282 299 328 330 326 329 335 309 292 327 276 260 245 266 285 281 247 258 263 271 280 268 264 274 264 250 247 223 219 224 223 209 208 206 212 209 200 197 195 193 190 193 189 171 167 141 78 84 82 48 151 187 216 214 216 216 206 212 203 210 201 192
260 327 148 121 120 98 113 124 166 127 71 61 231 171 190 170 131 256 73 114 24 321 7 45 341 310 305 284 244 288 345 326 300 329 281 301 292 283 271 268 281 261 252 253 263 268 269 264 278 288 275 251 241 241 233 214 214 205 203 191 191 187 183 187 183 182 178 184 178 157 161 178 189 205 189 199 209 208 207 212 207 200 206 216 219 204
191 16 134 161 148 144 143 165 211 135 151 116 232 151 139 140 124 127 134 80 77 145 354 6 168 267 324 310 285 333 326 297 305 265 287 301 296 291 271 280 282 284 289 272 271 283 278 266 273 269 268 260 258 254 239 222 209 201 196 190 188 187 183 177 174 175 179 187 189 191 199 204 205 213 218 217 221 216 216 209 200 208 203 213 214 213
99 103 77 84 105 121 131 186 220 145 125 194 300 122 113 115 130 158 114 105 169 255 274 46 87 206 306 287 271 314 319 295 308 313 314 304 302 301 291 280 276 277 272 282 283 280 270 275 260 277 285 279 252 266 276 239 207 193 193 180 182 177 174 176 171 178 184 191 192 197 205 208 212 213 221 206 219 216 192 200 215 213 213 212 220 222
123 168 154 134 87 121 178 210 187 137 126 215 225 131 115 124 126 110 88 99 100 37 274 342 346 351 258 267 313 360 339 311 289 306 300 307 309 307 310 304 291 278 273 257 274 284 296 290 289 272 288 295 303 279 234 218 198 189 171 166 160 170 170 178 177 181 190 194 193 198 203 212 219 220 225 192 198 207 202 213 210 212 218 216 218 221
336 164 208 152 142 182 220 287 220 122 88 262 133 96 98 86 71 84 98 76 353 71 270 220 8 200 278 276 326 335 273 270 266 275 279 272 284 298 306 315 316 322 324 302 248 269 282 279 286 278 283 304 311 303 241 177 158 149 147 153 161 170 175 173 179 185 189 193 190 198 204 212 217 212 209 162 196 208 188 216 215 215 217 217 217 218
245 321 193 84 181 167 131 49 124 27 113 134 123 83 50 42 35 35 60 84 63 346 253 264 307 175 300 269 230 135 211 202 240 297 280 290 296 292 270 274 314 332 333 338 336 302 288 285 288 326 2 328 348 3 48 57 86 117 138 146 153 171 163 173 177 182 189 191 192 201 204 210 215 208 204 200 211 190 154 208 215 212 217 214 220 215
24 360 45 299 62 105 101 81 30 78 102 122 103 130 85 8 13 31 348 32 119 265 261 280 298 313 178 290 291 238 281 224 206 213 277 294 300 301 317 327 332 339 334 328 345 356 354 7 11 33 37 14 6 31 33 37 53 92 122 134 132 148 168 175 175 183 190 192 199 207 206 211 215 206 201 210 212 200 203 204 212 213 208 213 224 225
47 84 222 9 213 115 128 91 355 350 355 89 99 90 112 219 36 270 14 248 203 197 244 336 223 347 240 234 254 289 261 250 217 215 235 251 286 300 317 332 328 321 326 328 332 338 358 7 354 17 15 21 23 18 10 21 58 92 118 141 143 181 188 180 176 185 190 192 203 204 208 213 210 209 207 211 216 204 209 208 209 193 211 212 207 213
275 277 9 355 37 217 154 122 151 136 321 117 136 143 111 116 72 220 275 279 312 291 270 309 263 266 252 277 248 245 252 204 221 224 235 237 256 281 303 321 317 313 308 296 299 294 296 319 329 317 323 344 336 345 340 233 127 133 131 143 156 188 186 181 175 192 190 210 210 208 212 213 205 212 209 214 214 213 212 205 210 206 204 205 211 212
127 288 251 152 193 161 89 162 172 151 155 203 36 140 173 141 155 198 193 192 212 201 281 279 63 233 113 250 221 220 253 277 277 264 263 261 261 275 301 288 287 302 309 292 297 341 332 288 279 293 298 284 271 276 293 266 189 142 150 156 159 187 213 176 202 197 220 227 229 226 226 226 214 219 218 219 217 216 211 210 213 211 208 209 212 209
201 194 287 315 270 310 162 255 112 104 49 8 170 79 96 212 135 127 205 139 168 359 10 242 218 192 180 288 280 247 285 284 276 280 314 283 275 323 313 296 302 305 303 327 347 354 350 294 287 293 300 291 286 301 316 298 270 187 208 193 193 199 185 190 200 223 226 242 248 241 233 231 227 228 228 231 221 225 216 217 211 218 209 216 216 218
29 226 343 307 37 67 136 198 345 139 172 217 98 189 205 100 99 104 65 26 85 47 259 161 314 288 298 319 279 342 312 282 318 298 299 273 297 359 294 292 286 296 319 334 344 336 326 346 343 291 309 323 334 321 275 253 221 213 198 190 223 234 231 203 207 212 217 238 241 244 238 237 227 224 222 224 223 221 218 218 217 217 221 218 213 216
148 209 357 53 107 350 224 143 108 39 138 97 174 221 179 149 127 124 176 350 65 170 265 89 230 291 29 280 330 338 287 278 271 251 259 282 329 293 285 282 287 312 308 296 286 278 267 276 331 351 297 260 274 287 306 280 242 235 218 202 214 222 228 234 210 216 214 214 223 232 238 239 236 234 236 235 236 229 219 218 213 221 224 216 216 208
120 80 339 347 228 287 4 327 52 35 49 137 199 177 111 196 201 325 92 214 146 263 270 296 282 263 192 241 332 321 202 250 247 248 285 268 222 231 268 286 306 316 340 8 16 28 47 42 33 14 16 289 253 253 247 286 309 309 275 245 213 230 242 249 231 228 238 220 228 227 230 234 243 246 251 248 248 240 227 224 211 208 221 226 211 208
56 136 291 332 139 268 355 106 186 196 347 29 89 81 329 102 153 127 196 175 124 238 66 290 42 247 199 220 203 233 227 231 262 258 227 229 219 212 256 279 294 354 10 38 58 57 47 43 32 68 47 58 269 255 290 292 270 238 238 207 229 259 265 267 255 234 244 242 230 244 245 246 236 246 248 248 242 239 236 236 224 219 215 219 204 207
153 114 154 282 292 89 177 199 212 163 147 77 89 175 91 33 226 103 27 122 180 171 182 215 317 277 255 215 195 221 218 218 176 185 289 245 239 232 225 221 174 180 108 82 44 27 12 359 352 351 320 336 350 51 174 90 42 163 157 115 131 275 238 230 237 215 235 233 236 234 242 246 239 248 244 253 241 237 241 240 231 224 223 215 222 208
93 173 153 148 65 222 241 274 211 168 188 167 162 186 170 128 139 155 245 31 89 115 221 132 252 267 271 182 206 214 250 309 266 241 259 271 271 257 239 232 197 134 169 284 329 325 347 351 352 354 11 35 41 22 13 1 11 15 9 359 12 348 30 324 291 269 271 241 239 246 263 262 263 256 255 250 253 248 248 248 245 242 223 220 225 205
143 122 105 167 212 176 229 337 258 285 92 181 165 216 167 164 101 122 190 236 58 351 102 153 292 272 244 220 229 226 255 253 271 242 256 284 252 239 240 232 258 229 156 294 308 320 333 335 319 319 39 47 43 24 13 8 11 357 346 353 358 357 341 337 321 326 321 312 309 301 303 313 278 256 250 252 257 255 255 252 252 249 235 230 231 226
81 100 73 338 312 315 333 333 43 338 64 24 303 75 144 196 178 165 159 177 152 150 111 4 255 252 288 253 238 230 239 259 267 213 220 261 242 251 226 202 201 209 298 302 290 319 350 345 306 6 35 30 24 16 6 355 354 355 357 352 349 352 338 340 342 337 336 329 325 327 328 303 282 270 263 260 259 259 257 253 251 246 245 238 231 234
156 252 130 117 35 346 346 349 355 347 44 210 182 205 168 86 81 126 100 69 113 214 166 130 230 270 273 319 316 261 327 304 264 230 190 207 251 221 205 205 212 313 311 298 352 2 3 355 359 5 14 36 22 13 7 1 353 354 346 344 345 336 331 330 335 338 331 327 318 317 312 296 292 282 276 267 271 268 269 261 255 247 245 242 238 237
139 178 136 154 167 176 193 193 215 213 204 188 225 176 186 155 144 130 174 93 190 268 154 173 238 249 296 325 345 325 337 280 264 239 230 226 188 229 223 221 235 218 241 301 312 356 344 280 295 335 1 13 33 34 14 4 357 347 334 318 308 328 333 325 330 314 310 323 323 315 319 307 306 288 277 274 273 268 266 263 254 251 249 238 247 251
171 139 194 184 188 198 204 200 22 91 72 184 216 160 185 177 173 125 107 111 210 193 174 231 227 229 260 260 250 264 284 214 213 226 204 209 251 230 248 270 253 222 201 233 234 218 195 11 337 318 325 348 16 33 24 10 354 346 331 320 324 337 326 309 315 314 327 326 327 310 303 296 282 273 269 265 263 267 264 255 250 243 246 235 237 247
90 175 220 205 221 224 142 165 213 147 168 192 133 182 171 158 177 159 178 215 166 93 247 234 222 242 232 244 250 243 253 260 269 255 242 232 221 217 231 270 282 283 259 262 281 53 77 275 284 311 328 336 348 14 21 349 307 284 284 315 319 306 299 310 316 321 327 329 319 295 288 280 272 266 263 262 259 257 256 251 242 239 246 236 237 239
142 195 227 158 242 163 133 164 166 162 177 173 177 163 169 181 169 185 212 221 133 191 229 231 153 226 242 184 217 215 201 207 211 216 215 218 258 295 295 272 262 255 245 240 231 211 219 233 226 229 233 242 259 48 45 220 235 258 303 306 331 329 344 335 336 340 341 331 310 298 287 285 276 267 275 276 270 262 253 249 254 258 251 244 247 245
115 242 195 165 224 157 222 138 170 157 135 116 182 180 181 171 190 198 214 218 194 217 230 238 172 226 238 184 211 225 214 216 214 101 181 248 242 254 247 239 238 244 252 210 206 221 258 256 221 208 208 188 159 103 69 24 3 2 351 348 343 353 350 354 351 4 357 5 336 308 300 297 300 302 288 290 293 294 298 294 290 281 275 265 258 257
145 248 95 123 177 260 242 101 93 175 154 184 218 197 187 192 198 204 212 221 212 249 261 268 261 271 252 164 213 238 226 216 38 276 235 231 238 238 235 239 242 245 247 206 176 257 289 295 333 355 38 24 25 21 16 353 349 345 349 349 348 353 344 355 4 23 24 12 349 338 337 347 347 339 341 332 323 321 323 318 310 305 290 282 272 265
145 215 53 86 163 280 356 168 120 79 63 140 212 194 202 200 210 220 217 208 159 210 230 243 262 257 259 139 212 213 175 212 229 231 232 235 228 226 229 235 235 244 252 205 201 208 196 189 184 136 60 30 14 14 8 354 346 354 353 342 349 342 335 2 21 25 18 4 355 358 357 352 345 349 342 339 336 332 326 322 323 313 300 295 288 276
157 131 138 137 154 246 302 122 123 100 62 294 250 221 205 203 206 205 235 234 207 200 209 208 235 245 216 177 194 219 183 216 225 226 235 239 236 214 218 224 224 233 243 210 198 183 181 167 121 68 49 42 14 2 349 336 340 349 336 337 328 331 359 8 20 16 17 5 5 0 357 353 353 349 348 347 339 333 330 329 323 313 306 294 283 291
115 134 160 175 158 239 347 128 124 99 208 227 233 213 174 193 193 187 207 216 221 178 209 211 232 248 113 170 191 207 203 211 214 227 219 220 226 222 234 236 231 212 203 198 179 124 76 64 64 65 42 8 303 290 290 304 297 302 304 296 318 358 1 14 10 18 8 4 5 356 352 352 350 348 342 337 337 337 335 334 324 312 299 294 298 286
135 120 149 166 128 124 206 100 95 210 232 233 328 173 187 197 174 199 221 219 217 214 241 270 272 264 232 205 208 214 215 231 233 233 244 252 250 215 217 222 217 199 187 164 150 156 131 98 72 56 44 22 349 329 342 349 340 326 331 345 357 1 11 14 10 15 7 0 357 355 353 350 346 340 337 335 336 333 330 324 315 314 308 299 295 296
154 135 145 57 124 69 91 165 197 230 238 327 284 342 339 158 188 189 261 263 232 200 206 229 242 246 250 231 214 207 203 230 278 257 242 240 200 207 210 226 209 176 159 165 142 143 134 124 107 102 71 326 359 335 332 326 331 342 326 330 19 360 13 13 19 14 8 0 359 355 347 342 335 332 333 334 335 335 331 330 319 315 316 307 295 279
138 103 119 175 180 168 178 199 230 357 331 282 255 227 166 158 152 170 220 245 226 211 197 220 237 249 257 255 243 212 205 5 290 272 208 193 212 222 204 200 155 154 137 140 126 125 119 112 126 188 140 5 345 338 342 321 322 303 318 35 27 35 32 30 23 10 359 355 350 349 345 343 336 333 334 335 335 334 332 330 327 320 316 309 300 300
154 155 209 149 233 149 141 183 257 243 250 246 224 268 174 168 166 182 180 270 236 206 201 209 231 240 247 252 243 172 109 193 274 261 228 214 154 111 83 103 100 105 106 112 81 69 62 65 62 54 96 45 42 15 338 341 351 12 52 36 23 27 23 22 12 356 352 349 348 344 345 341 339 332 329 330 328 322 315 310 300 296 308 304 306 302
193 127 160 178 209 142 199 217 215 218 237 242 271 217 210 177 158 128 149 253 257 184 192 199 223 238 239 240 226 114 130 227 254 258 241 164 146 140 123 110 106 104 91 86 90 72 60 43 65 54 45 44 33 359 353 352 15 41 38 26 22 27 25 15 359 352 346 339 336 336 335 333 330 324 320 319 314 313 311 309 306 301 300 286 283 280
153 158 146 191 202 194 190 212 223 211 247 250 236 256 230 135 111 94 145 258 235 175 189 183 202 224 236 230 127 157 169 232 252 261 172 152 139 130 125 127 109 97 80 80 61 84 87 74 74 54 46 35 8 345 357 358 36 50 44 23 24 32 21 2 346 329 322 322 326 324 323 321 318 309 309 307 303 302 297 297 302 300 299 292 277 286
172 161 189 200 200 211 208 243 345 284 275 204 193 183 157 197 121 157 216 234 213 214 209 176 198 219 210 141 153 176 217 214 225 134 127 123 107 89 72 80 99 102 105 86 74 69 80 69 77 72 51 24 359 359 358 6 40 41 34 24 34 26 5 343 332 333 329 325 323 322 316 312 306 306 300 289 293 293 294 296 296 301 301 301 301 295
192 176 170 190 211 200 205 222 236 283 234 164 325 153 168 113 202 218 227 212 174 219 235 199 203 206 150 182 183 210 193 127 123 114 121 123 120 120 111 108 94 78 71 86 78 68 78 75 67 56 42 22 20 14 16 19 36 27 19 24 27 6 343 336 339 333 329 325 320 313 310 306 302 289 291 296 298 301 293 284 280 281 286 288 292 299
179 169 184 191 189 189 174 211 204 234 261 124 126 80 284 172 230 193 153 284 208 204 174 213 198 218 161 189 192 142 123 127 131 135 125 122 118 121 120 112 108 106 93 77 55 42 72 81 67 58 54 24 25 22 16 28 33 21 12 24 7 350 342 341 337 331 324 319 317 319 316 313 311 309 305 299 293 290 293 288 286 283 278 285 297 296
171 165 185 204 179 185 192 206 209 215 159 170 149 195 191 214 191 169 149 208 229 184 202 203 227 190 183 149 150 144 142 131 110 123 117 107 109 106 100 98 96 93 89 82 84 63 65 83 83 77 62 51 32 27 21 24 25 15 15 7 354 345 345 346 339 330 326 324 323 320 318 313 309 298 294 293 295 290 291 303 304 297 287 286 296 304
202 194 174 188 176 182 200 210 234 225 170 210 187 170 197 204 113 188 183 184 172 236 189 170 202 183 172 147 144 144 142 167 147 150 134 146 132 127 115 106 96 93 80 73 59 58 61 62 57 55 50 41 35 26 24 17 20 9 9 352 350 347 348 341 332 324 320 319 315 313 309 307 303 300 297 298 304 315 317 313 317 314 309 297 291 289
306 189 142 104 242 266 284 199 205 277 231 249 239 158 329 304 341 125 150 170 242 203 177 184 169 159 155 149 129 170 157 156 146 145 130 132 125 114 111 99 85 73 65 52 44 36 43 57 61 51 43 41 38 30 19 16 12 8 347 343 344 346 339 334 332 333 336 335 333 329 327 325 323 321 320 319 316 305 296 299 306 305 302 304 291 284
249 148 121 166 252 169 242 205 201 223 227 241 236 288 203 220 229 180 186 209 218 177 189 178 155 163 162 166 155 155 159 160 144 138 133 122 120 120 106 102 86 73 60 50 36 30 29 31 27 23 12 8 16 23 12 6 356 345 333 340 342 349 351 349 349 344 342 340 332 329 330 327 326 325 324 325 321 311 300 291 289 288 286 287 289 288
280 180 159 213 188 187 231 236 251 284 253 249 190 190 224 233 218 215 241 250 142 124 123 147 143 143 159 161 165 146 150 152 142 145 139 132 125 118 104 91 86 76 64 65 45 37 48 42 37 17 6 359 359 6 356 352 342 334 337 342 357 2 358 352 350 341 333 328 323 323 325 322 323 323 316 318 319 315 313 303 281 281 283 288 290 292
200 117 213 186 206 248 288 286 259 337 321 267 236 249 241 223 161 108 131 131 133 121 106 66 40 132 157 159 143 138 137 156 148 143 134 128 116 101 97 89 81 80 69 61 46 51 53 45 36 23 6 351 353 351 345 339 332 324 356 2 16 6 1 350 342 335 327 325 325 323 324 319 317 314 314 312 312 300 283 293 303 292 283 270 247 242
101 190 201 140 195 209 211 223 168 193 255 268 242 223 217 190 154 142 127 136 163 150 150 120 69 40 67 86 140 149 142 142 141 135 128 120 112 103 95 87 81 74 68 59 60 48 46 35 39 18 2 342 351 341 330 330 323 354 5 23 16 11 3 349 337 329 326 326 325 321 320 317 314 317 315 314 313 314 310 286 267 268 278 287 278 246
189 196 140 178 188 220 235 253 187 208 242 233 217 217 168 169 157 159 183 181 188 179 162 141 127 96 80 38 18 116 130 133 135 120 112 108 101 94 84 73 62 53 49 44 48 37 41 31 31 27 6 351 342 324 324 320 346 1 14 35 15 11 357 347 334 323 321 324 323 321 319 316 314 314 311 307 308 310 308 311 310 281 258 262 277 279